Meteo Giornale » Osservazioni meteo Svizzera » Locarno

ore: 21:20 - Osservazioni Meteo Locarno
Lat. 46° 10' N Lon. 8° 53' E Alt. 600 metri s.l.m.

coperto_pioggia Europe/Zurich

16 °C

Pioggia

Temp. 24 Ore

15 °C

20 °C

Nord

3.7 Km/h

Dew point 16 °C

Umidità 100 %

Visibilità  6 Km

Il sole sorge alle ore 05:39

Il sole tramonta alle ore 21:03

Data e Ora Cielo e Fenomeni T °C DP °C Um. % Pres. hPa Vis. km Vento km/h
Oggi h: 21:20 coperto_pioggia Pioggia 16 16 100 1015 6 N 3.7
Oggi h: 20:50 coperto_pioggia Pioggia Debole 17 16 93 1015 10 N 0
Oggi h: 20:20 coperto_pioggia Pioggia Debole 17 16 93 1015 10 N 3.7
Oggi h: 19:50 poco_nuvoloso Poco Nuvoloso 17 15 88 1014 10 N 3.7
Oggi h: 19:20 poco_nuvoloso Poco Nuvoloso 18 15 82 1014 10 N 0
Oggi h: 18:20 poco_nuvoloso Poco Nuvoloso 17 15 88 1014 10 N 5.5
Oggi h: 17:50 coperto_pioggia Pioggia Debole 17 15 88 1014 10 N 1.8
Oggi h: 17:20 coperto_pioggia Pioggia Debole 17 15 88 1015 10 N 1.8
Oggi h: 16:50 coperto_pioggia Pioggia Debole 17 15 88 1015 10 N 1.8
Oggi h: 16:20 coperto_pioggia Pioggia Debole 17 15 88 1015 10 N 3.7
Oggi h: 15:50 coperto_pioggia Pioggia Debole 18 14 77 1015 10 N 3.7
Oggi h: 15:20 sereno Sereno 18 14 77 1014 10 N 5.5
Oggi h: 14:50 poco_nuvoloso Poco Nuvoloso 20 14 68 1014 10 N 3.7
Oggi h: 14:20 poco_nuvoloso Poco Nuvoloso 20 14 68 1014 10 O/SO 9.3
Oggi h: 13:50 nuvoloso_piovaschi Debole Rovescio di Pioggia 19 14 72 1014 10 SO 14.8
Oggi h: 13:20 coperto_pioggia Pioggia Debole 19 13 68 1014 10 O/SO 13
Oggi h: 12:50 nuvoloso_piovaschi Debole Rovescio di Pioggia 19 14 72 1014 10 O 7.4
Oggi h: 12:20 nuvoloso Nuvoloso 19 12 63 1014 10 O/SO 7.4
Oggi h: 11:50 poco_nuvoloso Poco Nuvoloso 20 13 64 1014 10 O/SO 9.3
Oggi h: 11:20 sereno Sereno 20 14 68 1014 10 O/SO 9.3
Oggi h: 10:50 poco_nuvoloso Poco Nuvoloso 20 13 64 1014 10 N 5.5
Oggi h: 10:20 poco_nuvoloso Poco Nuvoloso 20 13 64 1014 10 N 3.7
Oggi h: 09:50 molto_nuvoloso Molto Nuvoloso 19 13 68 1014 10 N 1.8
Oggi h: 09:20 nuvoloso Nuvoloso 18 14 77 1014 10 N 1.8
Oggi h: 08:50 molto_nuvoloso Molto Nuvoloso 17 15 88 1014 10 N 3.7
Oggi h: 08:20 nuvoloso Nuvoloso 18 13 72 1014 10 N 0
Oggi h: 07:50 poco_nuvoloso Poco Nuvoloso 16 15 93 1014 10 N 0
Oggi h: 07:20 nuvoloso Nuvoloso 15 15 100 1014 10 N 0
Oggi h: 06:50 molto_nuvoloso Molto Nuvoloso 15 14 93 1014 10 N 1.8
Oggi h: 06:20 nuvoloso Nuvoloso 15 15 100 1013 10 N 5.5
Oggi h: 05:50 nuvoloso Nuvoloso 16 14 87 1013 10 N 5.5
Oggi h: 05:20 coperto_pioggia Pioggia Debole 15 15 100 1013 10 NE 9.3
Oggi h: 04:50 molto_nuvoloso Molto Nuvoloso 15 15 100 1013 10 N 0
Oggi h: 04:20 molto_nuvoloso Molto Nuvoloso 15 15 100 1013 10 N 3.7
Oggi h: 03:50 nuvoloso Nuvoloso 15 15 100 1013 10 N 3.7
Oggi h: 03:20 nuvoloso_piovaschi Debole Rovescio di Pioggia 15 15 100 1013 10 N 0
Oggi h: 02:50 nuvoloso_piovaschi Debole Rovescio di Pioggia 16 14 87 1014 10 N 5.5
Oggi h: 02:20 nuvoloso_piovaschi Debole Rovescio di Pioggia 15 15 100 1013 10 N 3.7
Oggi h: 01:20 coperto_pioggia Pioggia 17 14 82 1014 2 N 0
Oggi h: 00:50 molto_nuvoloso Molto Nuvoloso 19 12 63 1014 10 SO 7.4
Oggi h: 00:20 molto_nuvoloso Molto Nuvoloso 18 13 72 1013 10 N 3.7
Ieri h: 23:50 nuvoloso Nuvoloso 18 12 67 1013 10 N 3.7
Ieri h: 23:20 nuvoloso Nuvoloso 19 12 63 1013 10 O 11.1
Ieri h: 22:20 sereno Sereno 17 14 82 1012 10 N 1.8
Ieri h: 21:50 nuvoloso Nuvoloso 19 16 82 1012 10 N 3.7